Home   Weather   Budenheim   Past weeks
Flag for Germany

Past Weather in Budenheim, Rhineland-Palatinate, Germany — December 2021

Currently: 65 °F. Sunny. (Weather station: Wiesbaden Airport, Germany). See more current weather

December 2021 Weather in Budenheim — Graph

°F

High & Low Weather Summary for December 2021

 TemperatureHumidityPressure
High61 °F (Dec 30, 12:56 pm)100% (Dec 4, 6:56 am)30.72 "Hg (Dec 4, 6:56 am)
Low24 °F (Dec 21, 5:56 am)31% (Dec 20, 1:56 pm)29.34 "Hg (Dec 10, 2:24 pm)
Average40 °F80%29.97 "Hg
* Reported Dec 1 12:56 am — Dec 31 11:56 pm, Budenheim. Weather by CustomWeather, © 2022

Note: Actual official high and low records may vary slightly from our data, if they occured in-between our weather recording intervals... More about our weather records

Budenheim Weather History for December 1, 2021

Scroll right to see more
 ConditionsComfort  
Time TempWeatherWind HumidityBarometerVisibility
12:56 am
Wed, Dec 1
45 °FLight rain. Overcast.18 mph71%29.79 "HgN/A
2:04 am45 °FLight rain. Overcast.15 mph71%29.78 "HgN/A
2:17 am45 °FOvercast.13 mph71%29.78 "HgN/A
2:48 am43 °FLight rain. Overcast.10 mph76%29.77 "HgN/A
3:01 am43 °FOvercast.13 mph71%29.76 "HgN/A
3:56 am41 °FOvercast.17 mph76%29.72 "HgN/A
4:46 am41 °FOvercast.16 mph76%29.70 "HgN/A
4:56 am41 °FOvercast.15 mph76%29.69 "HgN/A
5:16 am41 °FMostly cloudy.18 mph76%29.67 "HgN/A
5:56 am42 °FOvercast.12 mph71%29.66 "HgN/A
6:56 am43 °FOvercast.16 mph70%29.63 "HgN/A
7:46 am43 °FOvercast.15 mph71%29.60 "HgN/A
7:56 am43 °FOvercast.15 mph71%29.59 "HgN/A
8:56 am43 °FOvercast.16 mph71%29.56 "HgN/A
9:56 am44 °FOvercast.16 mph68%29.53 "HgN/A
10:56 am45 °FOvercast.17 mph66%29.50 "HgN/A
11:56 am46 °FOvercast.17 mph62%29.47 "HgN/A
12:56 pm46 °FOvercast.18 mph63%29.43 "HgN/A
1:56 pm46 °FOvercast.16 mph66%29.39 "HgN/A
2:56 pm46 °FOvercast.14 mph66%29.37 "HgN/A
3:56 pm46 °FLight rain. Overcast.23 mph66%29.37 "HgN/A
4:11 pm46 °FLight rain. Cloudy.20 mph71%29.37 "HgN/A
4:21 pm45 °FLight rain. Cloudy.14 mph76%29.37 "HgN/A
4:36 pm45 °FLight rain. Mostly cloudy.12 mph76%29.38 "HgN/A
5:01 pm45 °FOvercast.12 mph76%29.38 "HgN/A
5:21 pm45 °FOvercast.10 mph76%29.38 "HgN/A
5:56 pm44 °FClear.10 mph73%29.40 "HgN/A
6:56 pm43 °FPassing clouds.5 mph71%29.42 "HgN/A
8:06 pm45 °FOvercast.5 mph66%29.45 "HgN/A
8:36 pm43 °FOvercast.3 mph71%29.46 "HgN/A
9:16 pm43 °FPartly cloudy.8 mph76%29.47 "HgN/A
9:56 pm41 °FClear.14 mph76%29.46 "HgN/A
11:16 pm41 °FPartly cloudy.12 mph70%29.48 "HgN/A
11:26 pm41 °FPassing clouds.9 mph70%29.48 "HgN/A
11:56 pm43 °FOvercast.8 mph66%29.49 "HgN/A
Weather by CustomWeather, © 2022

See weather overview